Forest City, IA

9:25 PM CDT on May 26, 2017 (GMT -0500)
Forest City Municipal

Weather History for KFXY - March, 2014

Change the Weather History Date:

Tuesday, March 11, 2014

  Actual Average Record
Temperature  
Mean Temperature 36 °F -  
Max Temperature 41 °F 40 °F 68 °F (2016)
Min Temperature 32 °F 22 °F 14 °F (2017)
Degree Days  
Heating Degree Days 28    
Moisture  
Dew Point 31 °F    
Average Humidity 82    
Maximum Humidity 100    
Minimum Humidity 65    
Precipitation  
Precipitation 0.06 in - - ()
Sea Level Pressure  
Sea Level Pressure 29.79 in    
Wind  
Wind Speed 10 mph (North)    
Max Wind Speed 24 mph    
Max Gust Speed 29 mph    
Visibility 9 miles    
Events Rain , Snow    
Averages and records for this station are not official NWS values.
T = Trace of Precipitation, MM = Missing Value Source: NWS Daily Summary

Daily Weather History Graph

Daily Weather History Graph

Search for Another Location

Airport or City:

Trip Planner

Search our weather history database for the weather conditions in past years. The results will help you decide how hot, cold, wet, or windy it might be!

Date:

Astronomy

Mar. 11, 2014 Rise Set
Actual Time 7:33 AM CDT 7:16 PM CDT
Civil Twilight 7:05 AM CDT 7:44 PM CDT
Nautical Twilight 6:32 AM CDT 8:17 PM CDT
Astronomical Twilight 5:58 AM CDT 8:50 PM CDT
Moon 2:47 PM CDT (3/11) 4:33 AM CDT (3/11)
Length of Visible Light 12h 39m
Length of Day
11h 42m
Waxing Gibbous, 78% of the Moon is Illuminated
Mar 11
Waxing Gibbous
Mar 16
Full
Mar 23
Last Quarter
Mar 30
New
Apr 7
First Quarter

Hourly Weather History & Observations

Time (CDT) Temp. Windchill Dew Point Humidity Pressure Visibility Wind Dir Wind Speed Gust Speed Precip Events Conditions
12:10 AM 33.8 °F - 32.0 °F 93% 29.68 in 10.0 mi Calm Calm - N/A   Scattered Clouds
12:35 AM 33.8 °F - 32.0 °F 93% 29.68 in 10.0 mi Calm Calm - N/A   Mostly Cloudy
12:55 AM 33.8 °F - 33.8 °F 100% 29.68 in 10.0 mi Calm Calm - N/A   Mostly Cloudy
1:15 AM 33.8 °F - 32.0 °F 93% 29.67 in 10.0 mi Calm Calm - N/A   Overcast
1:35 AM 33.8 °F - 32.0 °F 93% 29.68 in 10.0 mi Calm Calm - N/A   Overcast
1:55 AM 33.8 °F 28.6 °F 32.0 °F 93% 29.68 in 10.0 mi North 5.8 mph - N/A   Overcast
2:15 AM 35.6 °F 30.7 °F 33.8 °F 93% 29.67 in 10.0 mi NE 5.8 mph - N/A   Overcast
2:35 AM 37.4 °F - 35.6 °F 93% 29.68 in 10.0 mi Calm Calm - N/A   Overcast
2:55 AM 39.2 °F 37.0 °F 33.8 °F 81% 29.69 in 10.0 mi NE 3.5 mph - N/A   Overcast
3:15 AM 39.2 °F 33.0 °F 33.8 °F 81% 29.69 in 10.0 mi NNE 9.2 mph - N/A   Light Drizzle
3:35 AM 39.2 °F 33.0 °F 32.0 °F 75% 29.68 in 10.0 mi NNE 9.2 mph - N/A   Drizzle
3:55 AM 39.2 °F 34.2 °F 32.0 °F 75% 29.67 in 10.0 mi NE 6.9 mph - N/A   Overcast
4:15 AM 41.0 °F 37.1 °F 30.2 °F 65% 29.66 in 10.0 mi NNE 5.8 mph - N/A   Overcast
4:35 AM 41.0 °F 33.5 °F 30.2 °F 65% 29.67 in 10.0 mi North 13.8 mph 17.3 mph N/A   Light Drizzle
4:50 AM 41.0 °F 34.3 °F 30.2 °F 65% 29.65 in 10.0 mi NNE 11.5 mph - N/A   Overcast
5:15 AM 41.0 °F 34.3 °F 32.0 °F 70% 29.66 in 10.0 mi NNE 11.5 mph - N/A   Overcast
5:35 AM 41.0 °F 34.3 °F 30.2 °F 65% 29.65 in 10.0 mi NNE 11.5 mph - N/A   Overcast
5:55 AM 41.0 °F 33.5 °F 32.0 °F 70% 29.65 in 10.0 mi NNE 13.8 mph - N/A   Overcast
6:15 AM 41.0 °F 32.8 °F 32.0 °F 70% 29.63 in 10.0 mi NNE 16.1 mph - N/A   Mostly Cloudy
6:35 AM 39.2 °F 30.8 °F 32.0 °F 75% 29.65 in 10.0 mi NNE 15.0 mph 20.7 mph N/A   Clear
6:55 AM 39.2 °F 29.8 °F 32.0 °F 75% 29.64 in 10.0 mi NNE 18.4 mph - N/A   Clear
7:15 AM 39.2 °F 30.2 °F 32.0 °F 75% 29.66 in 10.0 mi NNE 17.3 mph 25.3 mph N/A   Scattered Clouds
7:35 AM 39.2 °F 30.5 °F 32.0 °F 75% 29.68 in 10.0 mi NNE 16.1 mph 21.9 mph N/A   Mostly Cloudy
7:55 AM 37.4 °F 28.9 °F 32.0 °F 81% 29.69 in 10.0 mi NNE 13.8 mph 20.7 mph N/A   Mostly Cloudy
8:15 AM 37.4 °F 28.2 °F 32.0 °F 81% 29.70 in 10.0 mi NNE 16.1 mph 20.7 mph N/A   Mostly Cloudy
8:35 AM 37.4 °F 28.2 °F 32.0 °F 81% 29.70 in 10.0 mi NNE 16.1 mph 21.9 mph N/A   Mostly Cloudy
8:55 AM 37.4 °F 27.5 °F 32.0 °F 81% 29.72 in 10.0 mi NNE 18.4 mph 25.3 mph N/A   Scattered Clouds
9:15 AM 37.4 °F 28.5 °F 32.0 °F 81% 29.73 in 10.0 mi NNE 15.0 mph 24.2 mph N/A   Overcast
9:35 AM 37.4 °F 27.5 °F 32.0 °F 81% 29.75 in 10.0 mi NNE 18.4 mph 24.2 mph N/A   Overcast
9:55 AM 37.4 °F 27.8 °F 32.0 °F 81% 29.76 in 10.0 mi NNE 17.3 mph 23.0 mph N/A   Overcast
10:15 AM 35.6 °F 27.1 °F 32.0 °F 87% 29.77 in 10.0 mi NNE 12.7 mph 20.7 mph N/A   Overcast
10:35 AM 35.6 °F 26.6 °F 32.0 °F 87% 29.78 in 10.0 mi NNE 13.8 mph - N/A   Overcast
10:55 AM 35.6 °F 26.2 °F 32.0 °F 87% 29.79 in 10.0 mi NNE 15.0 mph 19.6 mph N/A   Overcast
11:15 AM 35.6 °F 25.2 °F 32.0 °F 87% 29.79 in 10.0 mi NNE 18.4 mph - N/A   Overcast
11:35 AM 35.6 °F 27.1 °F 32.0 °F 87% 29.81 in 10.0 mi North 12.7 mph 23.0 mph N/A   Light Drizzle
11:55 AM 35.6 °F 27.1 °F 33.8 °F 93% 29.82 in 10.0 mi North 12.7 mph 23.0 mph N/A   Light Drizzle
12:15 PM 35.6 °F 26.2 °F 33.8 °F 93% 29.84 in 10.0 mi North 15.0 mph - N/A Rain Light Rain
12:35 PM 33.8 °F 24.3 °F 32.0 °F 93% 29.84 in 7.0 mi North 13.8 mph - N/A Rain Light Rain
12:55 PM 33.8 °F 25.3 °F 32.0 °F 93% 29.84 in 4.0 mi North 11.5 mph - 0.01 in Snow Light Snow
1:15 PM 33.8 °F 25.3 °F 32.0 °F 93% 29.83 in 2.0 mi NNE 11.5 mph 17.3 mph 0.01 in Snow Light Snow
1:35 PM 33.8 °F 23.9 °F 32.0 °F 93% 29.83 in 5.0 mi NNE 15.0 mph 20.7 mph 0.02 in Snow Light Snow
1:55 PM 33.8 °F 23.9 °F 32.0 °F 93% 29.82 in 5.0 mi NNE 15.0 mph 20.7 mph 0.03 in Rain Light Rain
2:15 PM 33.8 °F 24.3 °F 32.0 °F 93% 29.82 in 1.5 mi NNE 13.8 mph - N/A Snow Light Snow
2:35 PM 33.8 °F 24.3 °F 32.0 °F 93% 29.82 in 1.2 mi North 13.8 mph - 0.01 in Snow Light Snow
2:55 PM 33.8 °F 25.8 °F 32.0 °F 93% 29.82 in 1.8 mi NNE 10.4 mph 18.4 mph 0.02 in Snow Light Snow
3:15 PM 33.8 °F 25.8 °F 32.0 °F 93% 29.81 in 10.0 mi NNE 10.4 mph - N/A Rain Light Rain
3:35 PM 33.8 °F 25.3 °F 32.0 °F 93% 29.81 in 10.0 mi North 11.5 mph - N/A   Overcast
3:55 PM 35.6 °F 28.6 °F 32.0 °F 87% 29.83 in 10.0 mi North 9.2 mph - N/A   Overcast
4:15 PM 35.6 °F 28.0 °F 32.0 °F 87% 29.85 in 10.0 mi North 10.4 mph - N/A   Overcast
4:35 PM 35.6 °F 27.5 °F 32.0 °F 87% 29.85 in 10.0 mi North 11.5 mph - N/A   Overcast
4:55 PM 35.6 °F 27.5 °F 32.0 °F 87% 29.86 in 10.0 mi North 11.5 mph - N/A   Overcast
5:15 PM 35.6 °F 27.1 °F 32.0 °F 87% 29.87 in 10.0 mi NNW 12.7 mph - N/A   Overcast
5:35 PM 35.6 °F 27.1 °F 30.2 °F 81% 29.88 in 10.0 mi NNW 12.7 mph - N/A   Overcast
5:55 PM 35.6 °F 26.6 °F 28.4 °F 75% 29.90 in 10.0 mi NNW 13.8 mph - N/A   Overcast
6:15 PM 35.6 °F 26.2 °F 30.2 °F 81% 29.91 in 10.0 mi NNW 15.0 mph 18.4 mph N/A   Overcast
6:35 PM 35.6 °F 25.9 °F 30.2 °F 81% 29.92 in 10.0 mi NNW 16.1 mph 20.7 mph N/A   Overcast
6:55 PM 35.6 °F 25.9 °F 28.4 °F 75% 29.92 in 10.0 mi NNW 16.1 mph 21.9 mph N/A   Overcast
7:15 PM 35.6 °F 26.6 °F 30.2 °F 81% 29.93 in 10.0 mi NNW 13.8 mph - N/A   Overcast
7:35 PM 35.6 °F 26.2 °F 30.2 °F 81% 29.93 in 10.0 mi NNW 15.0 mph - N/A   Overcast
7:55 PM 35.6 °F 26.2 °F 30.2 °F 81% 29.94 in 10.0 mi NNW 15.0 mph - N/A   Mostly Cloudy
8:15 PM 33.8 °F 23.5 °F 30.2 °F 87% 29.94 in 10.0 mi NNW 16.1 mph 20.7 mph N/A   Scattered Clouds
8:35 PM 35.6 °F 26.2 °F 30.2 °F 81% 29.94 in 10.0 mi NNW 15.0 mph 20.7 mph N/A   Clear
8:55 PM 35.6 °F 26.6 °F 28.4 °F 75% 29.94 in 10.0 mi NNW 13.8 mph 21.9 mph N/A   Clear
9:15 PM 35.6 °F 25.2 °F 28.4 °F 75% 29.94 in 10.0 mi NNW 18.4 mph 23.0 mph N/A   Clear
9:35 PM 35.6 °F 23.7 °F 28.4 °F 75% 29.93 in 10.0 mi NNW 24.2 mph 28.8 mph N/A   Clear
9:55 PM 33.8 °F 21.6 °F 26.6 °F 75% 29.94 in 10.0 mi NNW 23.0 mph 27.6 mph N/A   Clear
10:15 PM 33.8 °F 21.6 °F 26.6 °F 75% 29.93 in 10.0 mi NNW 23.0 mph 28.8 mph N/A   Clear
10:35 PM 33.8 °F 22.5 °F 24.8 °F 70% 29.95 in 10.0 mi NNW 19.6 mph 28.8 mph N/A   Clear
10:55 PM 33.8 °F 22.5 °F 24.8 °F 70% 29.96 in 10.0 mi NNW 19.6 mph 25.3 mph N/A   Clear
11:15 PM 32.0 °F 20.8 °F 23.0 °F 69% 29.96 in 10.0 mi NNW 17.3 mph 26.5 mph N/A   Clear
11:35 PM 32.0 °F 19.8 °F 23.0 °F 69% 29.96 in 10.0 mi NNW 20.7 mph 26.5 mph N/A   Clear
11:55 PM 32.0 °F 20.5 °F 24.8 °F 75% 29.97 in 10.0 mi NNW 18.4 mph 23.0 mph N/A   Clear